EJA1044 CYTZ-MMUN

Flight info

Callsign EJA1044
Flight time 3h 23m
Altitude 43000
Route OAKVL3 FOXEE Q145 HVQ DCT ODF DCT SZW DCT BUUOY M219 SNAKR Y240 MYDIA/N0478F410 DCT NOSAT NOSAT1B
Aircraft C700/M-SBDGHM1RWXY/LB2

Departure

Time 2026-04-22 17:40
Airport Billy Bishop Toronto City Airport (CYTZ)

Arrival

Time 2026-04-22 21:04
Airport Cancún International Airport (MMUN)
Time Latitude Longitude Altitude Speed Heading
2026-04-22 17:26 43.63067 -79.39827 251 ft 0 kts 143°
2026-04-22 17:35 43.63061 -79.39813 251 ft 4 kts 107°
2026-04-22 17:35 43.63014 -79.39768 251 ft 12 kts 169°
2026-04-22 17:35 43.62979 -79.39857 251 ft 14 kts 284°
2026-04-22 17:36 43.63022 -79.40003 251 ft 19 kts 290°
2026-04-22 17:36 43.62978 -79.40144 251 ft 19 kts 229°
2026-04-22 17:36 43.62872 -79.40276 251 ft 23 kts 218°
2026-04-22 17:36 43.62776 -79.40323 249 ft 14 kts 153°
2026-04-22 17:37 43.62761 -79.40278 249 ft 0 kts 74°
2026-04-22 17:39 43.62832 -79.39993 250 ft 69 kts 71°
2026-04-22 17:40 43.63077 -79.39015 252 ft 143 kts 70°
2026-04-22 17:40 43.63471 -79.37538 540 ft 181 kts 70°
2026-04-22 17:40 43.63835 -79.36221 843 ft 198 kts 70°
2026-04-22 17:40 43.64096 -79.35267 1017 ft 203 kts 70°
2026-04-22 17:41 43.64581 -79.33410 1370 ft 208 kts 70°
2026-04-22 17:41 43.65054 -79.31517 1696 ft 210 kts 71°
2026-04-22 17:41 43.65534 -79.29566 1702 ft 228 kts 71°
2026-04-22 17:41 43.66071 -79.27322 2111 ft 260 kts 75°
2026-04-22 17:42 43.65937 -79.24881 3587 ft 263 kts 113°
2026-04-22 17:42 43.64745 -79.22950 4939 ft 272 kts 150°
2026-04-22 17:42 43.62945 -79.22326 6399 ft 270 kts 187°
2026-04-22 17:42 43.61217 -79.23206 7743 ft 267 kts 222°
2026-04-22 17:43 43.60088 -79.25200 9110 ft 266 kts 245°
2026-04-22 17:43 43.59170 -79.27465 10456 ft 278 kts 244°
2026-04-22 17:43 43.58025 -79.29786 11407 ft 306 kts 236°
2026-04-22 17:43 43.56543 -79.31907 12886 ft 313 kts 229°
2026-04-22 17:44 43.54946 -79.34006 14260 ft 320 kts 230°
2026-04-22 17:44 43.53400 -79.36247 15535 ft 325 kts 233°
2026-04-22 17:44 43.51896 -79.38510 16766 ft 331 kts 233°
2026-04-22 17:44 43.50292 -79.40841 18020 ft 338 kts 232°
2026-04-22 17:45 43.48641 -79.43202 19085 ft 345 kts 232°
2026-04-22 17:45 43.46965 -79.45621 20032 ft 351 kts 233°
2026-04-22 17:45 43.45272 -79.48081 20921 ft 357 kts 233°
2026-04-22 17:45 43.43543 -79.50579 21812 ft 363 kts 233°
2026-04-22 17:46 43.41783 -79.53114 22701 ft 369 kts 233°
2026-04-22 17:46 43.40005 -79.55677 23562 ft 374 kts 233°
2026-04-22 17:46 43.38191 -79.58292 24285 ft 380 kts 233°
2026-04-22 17:46 43.36353 -79.60937 24987 ft 386 kts 233°
2026-04-22 17:47 43.34509 -79.63587 25670 ft 391 kts 234°
2026-04-22 17:47 43.32611 -79.66314 26357 ft 397 kts 234°
2026-04-22 17:47 43.30687 -79.69074 27029 ft 403 kts 234°
2026-04-22 17:47 43.28728 -79.71855 27697 ft 410 kts 232°
2026-04-22 17:48 43.27274 -79.73566 28131 ft 421 kts 225°
2026-04-22 17:48 43.23862 -79.76449 28997 ft 440 kts 213°
2026-04-22 17:48 43.20956 -79.77978 29650 ft 455 kts 202°
2026-04-22 17:48 43.19960 -79.78342 29842 ft 459 kts 200°
2026-04-22 17:49 43.17658 -79.79101 29966 ft 449 kts 200°
2026-04-22 17:49 43.14674 -79.80092 29955 ft 433 kts 200°
2026-04-22 17:49 43.11794 -79.81075 29942 ft 420 kts 201°
2026-04-22 17:49 43.09030 -79.82023 29918 ft 409 kts 201°
2026-04-22 17:50 43.06257 -79.82958 29898 ft 400 kts 201°
2026-04-22 17:50 43.01489 -79.84564 29855 ft 387 kts 201°
2026-04-22 17:51 42.96330 -79.86307 29818 ft 377 kts 201°
2026-04-22 17:51 42.91312 -79.87995 29788 ft 369 kts 201°
2026-04-22 17:52 42.87176 -79.89386 29768 ft 364 kts 201°
2026-04-22 17:52 42.82278 -79.90970 29749 ft 361 kts 198°
2026-04-22 17:53 42.77314 -79.92213 29731 ft 375 kts 198°
2026-04-22 17:53 42.74672 -79.92919 29745 ft 399 kts 198°
2026-04-22 17:53 42.71905 -79.93629 29778 ft 422 kts 197°
2026-04-22 17:53 42.68935 -79.94371 29819 ft 444 kts 196°
2026-04-22 17:54 42.65821 -79.95159 29916 ft 463 kts 196°
2026-04-22 17:54 42.62629 -79.95972 30534 ft 467 kts 196°
2026-04-22 17:54 42.59459 -79.96777 31098 ft 471 kts 196°
2026-04-22 17:54 42.56226 -79.97599 31646 ft 475 kts 196°
2026-04-22 17:55 42.54016 -79.98161 32016 ft 478 kts 197°
2026-04-22 17:55 42.49659 -79.99266 32698 ft 483 kts 197°
2026-04-22 17:55 42.46330 -80.00108 33216 ft 487 kts 197°
2026-04-22 17:55 42.43006 -80.00946 33922 ft 485 kts 197°
2026-04-22 17:56 42.39684 -80.01785 34511 ft 484 kts 197°
2026-04-22 17:56 42.36409 -80.02614 35052 ft 484 kts 197°
2026-04-22 17:56 42.33096 -80.03450 35589 ft 483 kts 197°
2026-04-22 17:56 42.29786 -80.04283 36093 ft 483 kts 197°
2026-04-22 17:57 42.26478 -80.05115 36573 ft 482 kts 197°
2026-04-22 17:57 42.23252 -80.06193 37017 ft 475 kts 205°
2026-04-22 17:57 42.20105 -80.07578 37443 ft 474 kts 204°
2026-04-22 17:57 42.16952 -80.08898 37851 ft 475 kts 204°
2026-04-22 17:58 42.13835 -80.10185 38239 ft 474 kts 204°
2026-04-22 17:58 42.10684 -80.11525 38613 ft 473 kts 204°
2026-04-22 17:58 42.07543 -80.12872 38927 ft 473 kts 204°
2026-04-22 17:58 42.04393 -80.14200 39221 ft 472 kts 204°
2026-04-22 17:59 42.01256 -80.15509 39522 ft 471 kts 203°
2026-04-22 17:59 41.98164 -80.16811 39813 ft 470 kts 203°
2026-04-22 17:59 41.95038 -80.18135 40100 ft 469 kts 203°
2026-04-22 17:59 41.91923 -80.19446 40371 ft 468 kts 203°
2026-04-22 18:00 41.89862 -80.20307 40553 ft 468 kts 203°
2026-04-22 18:00 41.85701 -80.22051 40928 ft 466 kts 203°
2026-04-22 18:00 41.82639 -80.23336 41193 ft 465 kts 202°
2026-04-22 18:00 41.79548 -80.24631 41450 ft 464 kts 202°
2026-04-22 18:01 41.76465 -80.25919 41710 ft 463 kts 202°
2026-04-22 18:01 41.74424 -80.26771 41878 ft 463 kts 202°
2026-04-22 18:01 41.71352 -80.28055 42133 ft 462 kts 202°
2026-04-22 18:01 41.68278 -80.29337 42375 ft 461 kts 202°
2026-04-22 18:02 41.64229 -80.31084 42687 ft 459 kts 205°
2026-04-22 18:02 41.62211 -80.32088 42862 ft 457 kts 206°
2026-04-22 18:02 41.59262 -80.33555 43045 ft 458 kts 204°
2026-04-22 18:03 41.53118 -80.36236 43033 ft 468 kts 203°
2026-04-22 18:03 41.46918 -80.39114 43039 ft 475 kts 204°
2026-04-22 18:04 41.40618 -80.41935 43043 ft 483 kts 203°
2026-04-22 18:04 41.34205 -80.44850 43050 ft 490 kts 203°
2026-04-22 18:05 41.27686 -80.47784 43053 ft 496 kts 203°
2026-04-22 18:05 41.21144 -80.50730 43058 ft 501 kts 203°
2026-04-22 18:06 41.14528 -80.53704 43060 ft 502 kts 203°
2026-04-22 18:06 41.07892 -80.56677 43064 ft 502 kts 203°
2026-04-22 18:07 41.01279 -80.59637 43065 ft 503 kts 202°
2026-04-22 18:07 40.94676 -80.62582 43062 ft 503 kts 202°
2026-04-22 18:08 40.88024 -80.65546 43063 ft 503 kts 202°
2026-04-22 18:08 40.81395 -80.68493 43059 ft 502 kts 202°
2026-04-22 18:09 40.74796 -80.71420 43052 ft 502 kts 202°
2026-04-22 18:09 40.68174 -80.74351 43060 ft 501 kts 202°
2026-04-22 18:10 40.61551 -80.77277 43038 ft 501 kts 202°
2026-04-22 18:10 40.54964 -80.80181 43040 ft 501 kts 202°
2026-04-22 18:11 40.48348 -80.83090 43041 ft 501 kts 202°
2026-04-22 18:11 40.41730 -80.85997 43040 ft 501 kts 202°
2026-04-22 18:12 40.35111 -80.88894 43042 ft 501 kts 202°
2026-04-22 18:12 40.28528 -80.91773 43046 ft 500 kts 202°
2026-04-22 18:13 40.21914 -80.94658 43045 ft 500 kts 202°
2026-04-22 18:13 40.15342 -80.97519 43042 ft 501 kts 202°
2026-04-22 18:14 40.08719 -81.00397 43048 ft 501 kts 202°
2026-04-22 18:14 40.02102 -81.03265 43048 ft 500 kts 202°
2026-04-22 18:15 39.95521 -81.06112 43052 ft 500 kts 202°
2026-04-22 18:15 39.88906 -81.08970 43056 ft 500 kts 202°
2026-04-22 18:16 39.82293 -81.11818 43057 ft 500 kts 202°
2026-04-22 18:16 39.75719 -81.14648 43066 ft 500 kts 202°
2026-04-22 18:17 39.69115 -81.17480 43066 ft 499 kts 202°
2026-04-22 18:17 39.62504 -81.20312 43073 ft 499 kts 202°
2026-04-22 18:18 39.55909 -81.23132 43083 ft 499 kts 202°
2026-04-22 18:18 39.49394 -81.26043 43093 ft 498 kts 203°
2026-04-22 18:19 39.42838 -81.28975 43109 ft 498 kts 203°
2026-04-22 18:19 39.36285 -81.31955 43107 ft 498 kts 203°
2026-04-22 18:20 39.29772 -81.34881 43108 ft 498 kts 203°
2026-04-22 18:20 39.23220 -81.37835 43104 ft 497 kts 203°
2026-04-22 18:21 39.16672 -81.40774 43099 ft 497 kts 203°
2026-04-22 18:21 39.10136 -81.43705 43102 ft 497 kts 203°
2026-04-22 18:22 39.03652 -81.46606 43102 ft 496 kts 203°
2026-04-22 18:22 38.97127 -81.49520 43109 ft 495 kts 203°
2026-04-22 18:23 38.90618 -81.52420 43118 ft 494 kts 202°
2026-04-22 18:23 38.84115 -81.55311 43127 ft 494 kts 203°
2026-04-22 18:24 38.74373 -81.59635 43129 ft 493 kts 202°
2026-04-22 18:25 38.64692 -81.63919 43145 ft 492 kts 202°
2026-04-22 18:25 38.58220 -81.66774 43157 ft 491 kts 203°
2026-04-22 18:26 38.48515 -81.71049 43163 ft 491 kts 203°
2026-04-22 18:26 38.42102 -81.73864 43165 ft 490 kts 203°
2026-04-22 18:27 38.35649 -81.76695 43166 ft 489 kts 203°
2026-04-22 18:27 38.29198 -81.79526 43165 ft 489 kts 203°
2026-04-22 18:28 38.22785 -81.82344 43165 ft 490 kts 203°
2026-04-22 18:28 38.16313 -81.85175 43165 ft 491 kts 203°
2026-04-22 18:29 38.09832 -81.88009 43168 ft 492 kts 203°
2026-04-22 18:29 38.03387 -81.90820 43174 ft 493 kts 203°
2026-04-22 18:30 37.93624 -81.95069 43171 ft 495 kts 203°
2026-04-22 18:31 37.87098 -81.97903 43171 ft 495 kts 203°
2026-04-22 18:31 37.80595 -82.00722 43166 ft 496 kts 203°
2026-04-22 18:32 37.74051 -82.03550 43156 ft 496 kts 203°
2026-04-22 18:32 37.67513 -82.06375 43154 ft 496 kts 203°
2026-04-22 18:33 37.60975 -82.09192 43150 ft 496 kts 203°
2026-04-22 18:33 37.54480 -82.11987 43152 ft 495 kts 203°
2026-04-22 18:34 37.47948 -82.14790 43149 ft 494 kts 203°
2026-04-22 18:34 37.41477 -82.17564 43156 ft 493 kts 203°
2026-04-22 18:35 37.34975 -82.20346 43146 ft 492 kts 203°
2026-04-22 18:35 37.28486 -82.23114 43149 ft 491 kts 202°
2026-04-22 18:36 37.22036 -82.25864 43158 ft 491 kts 203°
2026-04-22 18:36 37.15556 -82.28624 43182 ft 490 kts 202°
2026-04-22 18:37 37.09111 -82.31358 43197 ft 491 kts 203°
2026-04-22 18:37 37.03721 -82.33646 43210 ft 491 kts 202°
2026-04-22 18:38 36.96188 -82.36834 43223 ft 491 kts 202°
2026-04-22 18:38 36.89710 -82.39569 43210 ft 491 kts 202°
2026-04-22 18:39 36.80034 -82.43648 43200 ft 490 kts 202°
2026-04-22 18:39 36.73563 -82.46369 43184 ft 490 kts 202°
2026-04-22 18:40 36.67097 -82.49084 43195 ft 490 kts 202°
2026-04-22 18:40 36.60637 -82.51790 43198 ft 489 kts 202°
2026-04-22 18:41 36.54221 -82.54475 43209 ft 489 kts 202°
2026-04-22 18:41 36.47748 -82.57176 43206 ft 489 kts 202°
2026-04-22 18:42 36.41308 -82.59863 43207 ft 488 kts 202°
2026-04-22 18:42 36.34854 -82.62547 43194 ft 489 kts 202°
2026-04-22 18:43 36.28427 -82.65217 43210 ft 489 kts 202°
2026-04-22 18:43 36.21967 -82.67895 43201 ft 489 kts 202°
2026-04-22 18:44 36.15509 -82.70569 43204 ft 489 kts 202°
2026-04-22 18:44 36.09096 -82.73218 43203 ft 489 kts 202°
2026-04-22 18:45 36.02624 -82.75888 43201 ft 490 kts 202°
2026-04-22 18:45 35.96154 -82.78552 43201 ft 489 kts 202°
2026-04-22 18:46 35.89723 -82.81195 43204 ft 489 kts 202°
2026-04-22 18:46 35.83264 -82.83848 43200 ft 489 kts 202°
2026-04-22 18:47 35.76823 -82.86484 43199 ft 489 kts 202°
2026-04-22 18:47 35.70359 -82.89129 43199 ft 488 kts 202°
2026-04-22 18:48 35.63896 -82.91768 43203 ft 489 kts 202°
2026-04-22 18:48 35.57478 -82.94382 43203 ft 488 kts 202°
2026-04-22 18:49 35.51021 -82.97011 43204 ft 488 kts 202°
2026-04-22 18:49 35.44564 -82.99631 43202 ft 488 kts 202°
2026-04-22 18:50 35.38138 -83.02239 43203 ft 487 kts 202°
2026-04-22 18:50 35.32782 -83.04407 43201 ft 486 kts 202°
2026-04-22 18:51 35.25289 -83.07435 43207 ft 487 kts 202°
2026-04-22 18:51 35.18836 -83.10040 43206 ft 487 kts 202°
2026-04-22 18:52 35.13477 -83.12198 43198 ft 487 kts 202°
2026-04-22 18:52 35.07034 -83.14791 43201 ft 486 kts 202°
2026-04-22 18:53 35.00631 -83.17360 43200 ft 486 kts 202°
2026-04-22 18:53 34.94197 -83.19940 43200 ft 485 kts 202°
2026-04-22 18:54 34.87815 -83.22495 43202 ft 485 kts 202°
2026-04-22 18:54 34.81388 -83.25063 43210 ft 485 kts 202°
2026-04-22 18:55 34.74974 -83.27622 43208 ft 485 kts 202°
2026-04-22 18:55 34.68533 -83.30071 43215 ft 488 kts 197°
2026-04-22 18:56 34.61925 -83.31840 43218 ft 488 kts 197°
2026-04-22 18:56 34.55283 -83.33676 43214 ft 488 kts 197°
2026-04-22 18:57 34.48674 -83.35451 43213 ft 488 kts 197°
2026-04-22 18:57 34.42043 -83.37263 43219 ft 487 kts 197°
2026-04-22 18:58 34.35410 -83.39051 43219 ft 487 kts 197°
2026-04-22 18:58 34.28786 -83.40847 43227 ft 487 kts 197°
2026-04-22 18:59 34.22188 -83.42625 43230 ft 488 kts 197°
2026-04-22 18:59 34.15553 -83.44414 43233 ft 488 kts 197°
2026-04-22 19:00 34.08922 -83.46197 43226 ft 488 kts 197°
2026-04-22 19:00 34.02311 -83.47974 43206 ft 488 kts 197°
2026-04-22 19:01 33.95667 -83.49757 43209 ft 488 kts 198°
2026-04-22 19:01 33.89066 -83.51523 43239 ft 489 kts 198°
2026-04-22 19:02 33.82416 -83.53301 43238 ft 489 kts 198°
2026-04-22 19:02 33.75769 -83.55074 43238 ft 489 kts 198°
2026-04-22 19:03 33.69150 -83.56840 43226 ft 489 kts 198°
2026-04-22 19:03 33.62488 -83.58611 43225 ft 490 kts 198°
2026-04-22 19:04 33.55827 -83.60382 43221 ft 490 kts 198°
2026-04-22 19:04 33.49159 -83.62149 43223 ft 490 kts 198°
2026-04-22 19:05 33.42496 -83.63913 43225 ft 490 kts 198°
2026-04-22 19:05 33.35877 -83.65664 43238 ft 490 kts 198°
2026-04-22 19:06 33.29207 -83.67424 43237 ft 490 kts 198°
2026-04-22 19:07 33.19200 -83.70061 43233 ft 490 kts 198°
2026-04-22 19:07 33.12553 -83.71809 43237 ft 491 kts 198°
2026-04-22 19:08 33.05880 -83.73561 43233 ft 490 kts 198°
2026-04-22 19:08 32.99210 -83.75309 43229 ft 490 kts 198°
2026-04-22 19:09 32.92575 -83.77046 43228 ft 490 kts 198°
2026-04-22 19:09 32.85900 -83.78790 43231 ft 489 kts 197°
2026-04-22 19:10 32.79288 -83.80515 43228 ft 489 kts 197°
2026-04-22 19:10 32.72647 -83.82245 43225 ft 488 kts 197°
2026-04-22 19:11 32.66013 -83.83972 43227 ft 487 kts 197°
2026-04-22 19:11 32.59388 -83.85691 43251 ft 486 kts 197°
2026-04-22 19:12 32.52805 -83.87399 43249 ft 485 kts 197°
2026-04-22 19:12 32.46187 -83.89113 43249 ft 485 kts 197°
2026-04-22 19:13 32.39633 -83.90808 43247 ft 484 kts 197°
2026-04-22 19:13 32.33053 -83.92506 43249 ft 484 kts 197°
2026-04-22 19:14 32.26464 -83.94205 43231 ft 483 kts 197°
2026-04-22 19:14 32.19929 -83.95887 43231 ft 483 kts 197°
2026-04-22 19:15 32.14465 -83.97292 43221 ft 483 kts 197°
2026-04-22 19:15 32.06768 -83.99268 43220 ft 483 kts 197°
2026-04-22 19:16 32.00237 -84.00941 43223 ft 483 kts 197°
2026-04-22 19:16 31.93658 -84.02625 43247 ft 482 kts 197°
2026-04-22 19:17 31.87137 -84.04291 43246 ft 482 kts 197°
2026-04-22 19:17 31.80556 -84.05970 43252 ft 482 kts 197°
2026-04-22 19:18 31.73990 -84.07643 43249 ft 482 kts 197°
2026-04-22 19:18 31.67463 -84.09304 43244 ft 481 kts 197°
2026-04-22 19:19 31.60932 -84.10964 43239 ft 481 kts 197°
2026-04-22 19:19 31.54384 -84.12624 43241 ft 481 kts 197°
2026-04-22 19:20 31.47837 -84.14283 43240 ft 480 kts 197°
2026-04-22 19:20 31.41302 -84.15936 43240 ft 480 kts 197°
2026-04-22 19:21 31.34812 -84.17575 43237 ft 479 kts 197°
2026-04-22 19:21 31.28275 -84.19225 43234 ft 479 kts 197°
2026-04-22 19:22 31.21786 -84.20859 43231 ft 479 kts 197°
2026-04-22 19:22 31.15256 -84.22501 43230 ft 479 kts 198°
2026-04-22 19:23 31.08726 -84.24142 43231 ft 478 kts 198°
2026-04-22 19:23 31.02251 -84.25765 43228 ft 478 kts 198°
2026-04-22 19:24 30.95734 -84.27398 43231 ft 478 kts 198°
2026-04-22 19:24 30.89222 -84.29027 43232 ft 477 kts 198°
2026-04-22 19:25 30.82755 -84.30642 43231 ft 477 kts 198°
2026-04-22 19:25 30.76253 -84.32264 43234 ft 477 kts 198°
2026-04-22 19:26 30.69748 -84.33885 43236 ft 477 kts 198°
2026-04-22 19:26 30.63284 -84.35492 43238 ft 477 kts 198°
2026-04-22 19:27 30.56788 -84.37107 43240 ft 476 kts 198°
2026-04-22 19:27 30.50251 -84.38506 43241 ft 478 kts 195°
2026-04-22 19:28 30.43741 -84.39863 43242 ft 476 kts 196°
2026-04-22 19:28 30.37213 -84.41215 43241 ft 476 kts 195°
2026-04-22 19:29 30.30720 -84.42559 43239 ft 476 kts 195°
2026-04-22 19:29 30.24196 -84.43907 43242 ft 475 kts 195°
2026-04-22 19:30 30.18785 -84.45023 43240 ft 475 kts 195°
2026-04-22 19:30 30.11208 -84.46586 43242 ft 474 kts 195°
2026-04-22 19:31 30.04753 -84.47914 43242 ft 473 kts 196°
2026-04-22 19:31 29.98259 -84.49249 43241 ft 473 kts 196°
2026-04-22 19:32 29.91801 -84.50575 43242 ft 473 kts 196°
2026-04-22 19:32 29.85324 -84.51903 43243 ft 472 kts 196°
2026-04-22 19:33 29.78843 -84.53230 43241 ft 473 kts 196°
2026-04-22 19:33 29.72353 -84.54557 43240 ft 473 kts 196°
2026-04-22 19:34 29.65871 -84.55881 43243 ft 474 kts 196°
2026-04-22 19:34 29.59372 -84.57206 43240 ft 474 kts 196°
2026-04-22 19:35 29.52914 -84.58522 43240 ft 474 kts 196°
2026-04-22 19:35 29.47494 -84.59624 43238 ft 474 kts 196°
2026-04-22 19:36 29.39895 -84.61168 43234 ft 474 kts 196°
2026-04-22 19:36 29.34355 -84.62290 43233 ft 467 kts 196°
2026-04-22 19:36 29.31223 -84.62915 43229 ft 443 kts 196°
2026-04-22 19:37 29.28256 -84.63513 43227 ft 423 kts 197°
2026-04-22 19:37 29.25422 -84.64093 43222 ft 405 kts 197°
2026-04-22 19:37 29.22733 -84.64640 43222 ft 389 kts 197°
2026-04-22 19:37 29.20127 -84.65166 43220 ft 374 kts 197°
2026-04-22 19:38 29.17602 -84.65675 43221 ft 361 kts 198°
2026-04-22 19:38 29.15161 -84.66171 43209 ft 349 kts 198°
2026-04-22 19:38 29.12809 -84.66647 43209 ft 338 kts 198°
2026-04-22 19:39 29.08333 -84.67550 43205 ft 319 kts 199°
2026-04-22 19:39 29.04674 -84.68288 43210 ft 304 kts 199°
2026-04-22 19:39 29.02619 -84.68702 43210 ft 295 kts 199°
2026-04-22 19:40 29.01286 -84.68970 43204 ft 290 kts 199°
2026-04-22 19:40 28.99326 -84.69365 43202 ft 282 kts 200°
2026-04-22 19:40 28.97414 -84.69751 43201 ft 275 kts 200°
2026-04-22 19:40 28.95551 -84.70125 43200 ft 267 kts 200°
2026-04-22 19:41 28.93740 -84.70489 43198 ft 261 kts 200°
2026-04-22 19:41 28.92074 -84.70819 43201 ft 257 kts 200°
2026-04-22 19:41 28.90314 -84.71183 43209 ft 258 kts 201°
2026-04-22 19:41 28.88490 -84.71572 43056 ft 274 kts 200°
2026-04-22 19:42 28.86588 -84.71946 43052 ft 280 kts 199°
2026-04-22 19:42 28.84662 -84.72310 43252 ft 279 kts 200°
2026-04-22 19:42 28.82760 -84.72695 43237 ft 276 kts 200°
2026-04-22 19:42 28.80879 -84.73078 43228 ft 273 kts 200°
2026-04-22 19:43 28.77007 -84.73865 43239 ft 293 kts 199°
2026-04-22 19:43 28.73025 -84.74657 43234 ft 306 kts 199°
2026-04-22 19:44 28.68715 -84.75520 43238 ft 321 kts 199°
2026-04-22 19:44 28.64206 -84.76424 43232 ft 337 kts 198°
2026-04-22 19:45 28.59501 -84.77364 43233 ft 351 kts 198°
2026-04-22 19:45 28.54608 -84.78341 43227 ft 366 kts 198°
2026-04-22 19:46 28.49484 -84.79362 43215 ft 380 kts 197°
2026-04-22 19:46 28.44177 -84.80420 43214 ft 393 kts 197°
2026-04-22 19:47 28.38727 -84.81506 43219 ft 405 kts 197°
2026-04-22 19:47 28.33079 -84.82629 43213 ft 417 kts 197°
2026-04-22 19:48 28.27316 -84.83774 43212 ft 428 kts 197°
2026-04-22 19:48 28.21376 -84.84953 43209 ft 438 kts 197°
2026-04-22 19:49 28.15301 -84.86157 43215 ft 447 kts 197°
2026-04-22 19:49 28.09110 -84.87383 43214 ft 455 kts 197°
2026-04-22 19:50 28.02839 -84.88623 43204 ft 462 kts 197°
2026-04-22 19:50 27.96479 -84.89878 43202 ft 464 kts 197°
2026-04-22 19:51 27.90155 -84.91126 43207 ft 464 kts 197°
2026-04-22 19:51 27.83794 -84.92379 43205 ft 463 kts 197°
2026-04-22 19:52 27.77432 -84.93633 43200 ft 463 kts 197°
2026-04-22 19:52 27.71102 -84.94876 43199 ft 463 kts 197°
2026-04-22 19:53 27.64744 -84.96125 43192 ft 463 kts 197°
2026-04-22 19:53 27.58392 -84.97371 43182 ft 462 kts 197°
2026-04-22 19:54 27.52052 -84.98614 43181 ft 462 kts 197°
2026-04-22 19:54 27.45765 -84.99844 43173 ft 461 kts 197°
2026-04-22 19:55 27.39428 -85.01083 43170 ft 462 kts 197°
2026-04-22 19:55 27.33088 -85.02320 43174 ft 461 kts 197°
2026-04-22 19:56 27.26798 -85.03547 43170 ft 461 kts 197°
2026-04-22 19:56 27.20468 -85.04780 43170 ft 460 kts 197°
2026-04-22 19:57 27.14183 -85.06003 43168 ft 460 kts 197°
2026-04-22 19:57 27.07862 -85.07232 43166 ft 459 kts 197°
2026-04-22 19:58 27.01548 -85.08458 43160 ft 459 kts 197°
2026-04-22 19:58 26.95288 -85.09671 43166 ft 459 kts 197°
2026-04-22 20:00 26.73283 -85.13927 43152 ft 458 kts 197°
2026-04-22 20:00 26.71026 -85.14360 43149 ft 447 kts 197°
2026-04-22 20:01 26.67971 -85.14947 43148 ft 449 kts 197°
2026-04-22 20:01 26.61758 -85.16155 43146 ft 456 kts 197°
2026-04-22 20:02 26.55517 -85.17349 43147 ft 457 kts 197°
2026-04-22 20:02 26.49246 -85.18561 43144 ft 456 kts 197°
2026-04-22 20:03 26.42983 -85.19766 43145 ft 456 kts 197°
2026-04-22 20:03 26.36768 -85.20956 43145 ft 455 kts 197°
2026-04-22 20:04 26.30527 -85.22154 43145 ft 455 kts 197°
2026-04-22 20:04 26.24274 -85.23350 43138 ft 456 kts 197°
2026-04-22 20:05 26.18021 -85.24547 43142 ft 456 kts 197°
2026-04-22 20:05 26.11749 -85.25745 43140 ft 456 kts 197°
2026-04-22 20:06 26.05513 -85.26935 43133 ft 457 kts 197°
2026-04-22 20:06 25.99156 -85.27795 43131 ft 462 kts 193°
2026-04-22 20:07 25.92754 -85.28479 43130 ft 462 kts 193°
2026-04-22 20:07 25.86334 -85.29131 43127 ft 463 kts 193°
2026-04-22 20:08 25.79932 -85.29795 43130 ft 463 kts 193°
2026-04-22 20:08 25.73499 -85.30457 43129 ft 464 kts 193°
2026-04-22 20:09 25.67092 -85.31116 43127 ft 464 kts 193°
2026-04-22 20:09 25.60656 -85.31778 43121 ft 464 kts 193°
2026-04-22 20:10 25.54219 -85.32439 43120 ft 463 kts 193°
2026-04-22 20:10 25.47826 -85.33095 43120 ft 463 kts 193°
2026-04-22 20:11 25.41389 -85.33754 43118 ft 464 kts 193°
2026-04-22 20:11 25.35128 -85.34879 43119 ft 452 kts 203°
2026-04-22 20:12 25.29395 -85.37497 43130 ft 440 kts 216°
2026-04-22 20:12 25.24965 -85.40308 43124 ft 441 kts 216°
2026-04-22 20:13 25.18770 -85.44207 43119 ft 440 kts 216°
2026-04-22 20:13 25.13441 -85.47575 43112 ft 440 kts 216°
2026-04-22 20:14 25.08108 -85.50931 43099 ft 440 kts 216°
2026-04-22 20:14 25.02826 -85.54259 43103 ft 440 kts 216°
2026-04-22 20:15 24.97497 -85.57609 43100 ft 440 kts 216°
2026-04-22 20:15 24.92204 -85.60935 43100 ft 440 kts 216°
2026-04-22 20:16 24.86882 -85.64276 43100 ft 439 kts 216°
2026-04-22 20:16 24.81563 -85.67610 43096 ft 439 kts 216°
2026-04-22 20:17 24.76275 -85.70922 43094 ft 439 kts 216°
2026-04-22 20:17 24.70964 -85.74246 43094 ft 438 kts 216°
2026-04-22 20:18 24.65684 -85.77546 43092 ft 438 kts 216°
2026-04-22 20:18 24.60390 -85.80853 43097 ft 437 kts 216°
2026-04-22 20:19 24.55101 -85.84153 43092 ft 436 kts 216°
2026-04-22 20:19 24.49847 -85.87427 43093 ft 435 kts 216°
2026-04-22 20:20 24.44569 -85.90714 43092 ft 435 kts 216°
2026-04-22 20:20 24.39299 -85.93991 43093 ft 434 kts 216°
2026-04-22 20:21 24.34070 -85.97242 43091 ft 434 kts 216°
2026-04-22 20:21 24.28814 -86.00505 43086 ft 434 kts 216°
2026-04-22 20:22 24.23557 -86.03766 43087 ft 433 kts 216°
2026-04-22 20:22 24.18293 -86.07028 43082 ft 433 kts 216°
2026-04-22 20:23 24.13071 -86.10261 43088 ft 433 kts 216°
2026-04-22 20:23 24.07672 -86.13259 43087 ft 440 kts 208°
2026-04-22 20:24 24.01654 -86.14959 43082 ft 454 kts 195°
2026-04-22 20:24 23.95285 -86.15077 43081 ft 468 kts 183°
2026-04-22 20:25 23.88791 -86.14504 43079 ft 467 kts 184°
2026-04-22 20:25 23.82291 -86.13949 43076 ft 468 kts 183°
2026-04-22 20:26 23.75830 -86.13388 43072 ft 467 kts 184°
2026-04-22 20:26 23.69329 -86.12830 43075 ft 467 kts 183°
2026-04-22 20:27 23.62834 -86.12269 43071 ft 467 kts 183°
2026-04-22 20:27 23.56394 -86.11716 43072 ft 466 kts 183°
2026-04-22 20:28 23.49908 -86.11159 43071 ft 466 kts 183°
2026-04-22 20:28 23.44525 -86.10696 43063 ft 466 kts 183°
2026-04-22 20:29 23.37002 -86.10051 43062 ft 465 kts 183°
2026-04-22 20:29 23.31626 -86.09591 43066 ft 465 kts 183°
2026-04-22 20:30 23.25164 -86.09037 43058 ft 466 kts 183°
2026-04-22 20:30 23.18727 -86.08487 43059 ft 466 kts 183°
2026-04-22 20:31 23.12255 -86.07934 43060 ft 465 kts 183°
2026-04-22 20:31 23.05787 -86.07382 42879 ft 465 kts 183°
2026-04-22 20:31 23.02614 -86.07109 42289 ft 460 kts 184°
2026-04-22 20:32 22.99449 -86.06835 41701 ft 451 kts 184°
2026-04-22 20:32 22.96349 -86.06570 41107 ft 443 kts 184°
2026-04-22 20:32 22.93291 -86.06313 40526 ft 438 kts 185°
2026-04-22 20:32 22.90249 -86.06058 39958 ft 437 kts 185°
2026-04-22 20:33 22.87207 -86.05801 39376 ft 440 kts 185°
2026-04-22 20:33 22.84123 -86.05541 38789 ft 446 kts 185°
2026-04-22 20:33 22.81012 -86.05276 38141 ft 449 kts 185°
2026-04-22 20:33 22.77893 -86.05007 37555 ft 450 kts 185°
2026-04-22 20:34 22.74764 -86.04741 36959 ft 452 kts 185°
2026-04-22 20:34 22.71620 -86.04476 36361 ft 453 kts 185°
2026-04-22 20:34 22.68470 -86.04209 35763 ft 455 kts 184°
2026-04-22 20:34 22.65339 -86.03943 35164 ft 456 kts 184°
2026-04-22 20:35 22.62165 -86.03673 34561 ft 458 kts 184°
2026-04-22 20:35 22.58977 -86.03404 33939 ft 460 kts 184°
2026-04-22 20:35 22.55779 -86.03133 33310 ft 461 kts 184°
2026-04-22 20:35 22.52569 -86.02862 32697 ft 463 kts 183°
2026-04-22 20:36 22.49382 -86.02594 32090 ft 465 kts 183°
2026-04-22 20:36 22.46149 -86.02319 31470 ft 466 kts 183°
2026-04-22 20:36 22.42903 -86.02043 30853 ft 468 kts 183°
2026-04-22 20:36 22.39641 -86.01769 30233 ft 470 kts 182°
2026-04-22 20:37 22.36400 -86.01495 29572 ft 469 kts 182°
2026-04-22 20:37 22.33153 -86.01217 28952 ft 465 kts 182°
2026-04-22 20:37 22.29936 -86.00945 28343 ft 462 kts 182°
2026-04-22 20:37 22.26738 -86.00678 27737 ft 459 kts 182°
2026-04-22 20:38 22.23566 -86.00411 27132 ft 455 kts 182°
2026-04-22 20:38 22.20409 -86.00144 26535 ft 452 kts 181°
2026-04-22 20:38 22.17323 -85.99883 25952 ft 449 kts 181°
2026-04-22 20:38 22.14214 -85.99622 25366 ft 446 kts 181°
2026-04-22 20:39 22.11121 -85.99362 24779 ft 443 kts 181°
2026-04-22 20:39 22.08057 -85.99104 24193 ft 440 kts 181°
2026-04-22 20:39 22.05055 -85.98851 23617 ft 432 kts 181°
2026-04-22 20:39 22.02137 -85.98778 23018 ft 406 kts 188°
2026-04-22 20:40 21.99389 -85.99148 22489 ft 389 kts 196°
2026-04-22 20:40 21.96808 -85.99889 22057 ft 378 kts 204°
2026-04-22 20:40 21.94392 -86.00962 22042 ft 377 kts 211°
2026-04-22 20:40 21.92118 -86.02370 22044 ft 376 kts 218°
2026-04-22 20:41 21.90062 -86.04059 22043 ft 374 kts 225°
2026-04-22 20:41 21.88108 -86.05917 22041 ft 375 kts 225°
2026-04-22 20:41 21.86138 -86.07758 22041 ft 375 kts 225°
2026-04-22 20:41 21.84164 -86.09608 22039 ft 375 kts 225°
2026-04-22 20:42 21.82203 -86.11459 22037 ft 375 kts 225°
2026-04-22 20:42 21.80258 -86.13292 22039 ft 376 kts 225°
2026-04-22 20:42 21.78289 -86.15143 22039 ft 376 kts 225°
2026-04-22 20:42 21.76315 -86.16997 21991 ft 377 kts 225°
2026-04-22 20:43 21.74331 -86.18863 21615 ft 377 kts 225°
2026-04-22 20:43 21.72391 -86.20680 21199 ft 360 kts 225°
2026-04-22 20:43 21.70546 -86.22406 20796 ft 343 kts 225°
2026-04-22 20:43 21.68784 -86.24062 20410 ft 329 kts 225°
2026-04-22 20:44 21.67093 -86.25653 20041 ft 325 kts 225°
2026-04-22 20:44 21.65944 -86.26733 19793 ft 324 kts 224°
2026-04-22 20:44 21.65256 -86.27378 19644 ft 320 kts 224°
2026-04-22 20:44 21.63558 -86.28971 19276 ft 327 kts 224°
2026-04-22 20:45 21.61842 -86.30584 18906 ft 328 kts 224°
2026-04-22 20:45 21.60145 -86.32173 18539 ft 327 kts 224°
2026-04-22 20:45 21.58436 -86.33777 18142 ft 325 kts 224°
2026-04-22 20:45 21.56736 -86.35369 17757 ft 323 kts 223°
2026-04-22 20:46 21.53360 -86.38532 17022 ft 320 kts 223°
2026-04-22 20:46 21.51565 -86.39937 16658 ft 320 kts 215°
2026-04-22 20:46 21.49704 -86.41233 16274 ft 318 kts 216°
2026-04-22 20:47 21.47872 -86.42565 15907 ft 317 kts 216°
2026-04-22 20:47 21.46048 -86.43888 15542 ft 315 kts 216°
2026-04-22 20:47 21.44238 -86.45176 15185 ft 314 kts 216°
2026-04-22 20:47 21.42416 -86.46469 14828 ft 313 kts 216°
2026-04-22 20:48 21.40605 -86.47768 14451 ft 312 kts 216°
2026-04-22 20:48 21.39410 -86.48625 14208 ft 311 kts 215°
2026-04-22 20:48 21.38959 -86.48948 14118 ft 311 kts 215°
2026-04-22 20:48 21.37204 -86.50201 13766 ft 310 kts 215°
2026-04-22 20:49 21.35412 -86.51479 13395 ft 308 kts 214°
2026-04-22 20:49 21.33636 -86.52748 13042 ft 306 kts 214°
2026-04-22 20:49 21.31889 -86.54001 12700 ft 304 kts 214°
2026-04-22 20:49 21.30133 -86.55256 12355 ft 303 kts 214°
2026-04-22 20:50 21.28442 -86.56464 12027 ft 301 kts 214°
2026-04-22 20:50 21.26695 -86.57712 11688 ft 300 kts 214°
2026-04-22 20:50 21.24952 -86.58957 11354 ft 299 kts 214°
2026-04-22 20:50 21.23247 -86.60175 11024 ft 297 kts 214°
2026-04-22 20:51 21.21532 -86.61399 10688 ft 296 kts 214°
2026-04-22 20:51 21.19822 -86.62619 10367 ft 294 kts 214°
2026-04-22 20:51 21.18116 -86.63836 10041 ft 293 kts 214°
2026-04-22 20:51 21.16416 -86.65049 9698 ft 292 kts 214°
2026-04-22 20:52 21.14733 -86.66250 9366 ft 288 kts 214°
2026-04-22 20:52 21.13115 -86.67402 9063 ft 277 kts 213°
2026-04-22 20:52 21.11543 -86.68535 8771 ft 267 kts 216°
2026-04-22 20:52 21.10236 -86.69896 8483 ft 259 kts 232°
2026-04-22 20:53 21.09330 -86.71533 8201 ft 253 kts 246°
2026-04-22 20:53 21.08852 -86.73334 7922 ft 250 kts 261°
2026-04-22 20:53 21.08809 -86.75193 7646 ft 250 kts 275°
2026-04-22 20:53 21.09203 -86.77006 7378 ft 251 kts 290°
2026-04-22 20:54 21.09999 -86.78644 7100 ft 252 kts 303°
2026-04-22 20:54 21.10993 -86.80191 6826 ft 251 kts 303°
2026-04-22 20:54 21.11961 -86.81761 6548 ft 251 kts 303°
2026-04-22 20:54 21.12931 -86.83320 6257 ft 251 kts 303°
2026-04-22 20:55 21.13907 -86.84871 5958 ft 251 kts 303°
2026-04-22 20:55 21.14869 -86.86408 5665 ft 251 kts 303°
2026-04-22 20:55 21.15844 -86.87968 5369 ft 251 kts 303°
2026-04-22 20:55 21.16814 -86.89525 5077 ft 251 kts 303°
2026-04-22 20:56 21.17787 -86.91080 4788 ft 251 kts 303°
2026-04-22 20:56 21.18764 -86.92644 4487 ft 251 kts 303°
2026-04-22 20:56 21.19723 -86.94181 4187 ft 249 kts 303°
2026-04-22 20:56 21.20687 -86.95728 3894 ft 248 kts 303°
2026-04-22 20:57 21.21648 -86.97273 3600 ft 249 kts 303°
2026-04-22 20:57 21.22597 -86.98794 3310 ft 248 kts 303°
2026-04-22 20:57 21.23338 -87.00447 2989 ft 246 kts 278°
2026-04-22 20:57 21.23139 -87.02169 2960 ft 224 kts 241°
2026-04-22 20:58 21.22116 -87.03303 2957 ft 208 kts 202°
2026-04-22 20:58 21.20725 -87.03634 2969 ft 201 kts 182°
2026-04-22 20:58 21.19377 -87.03771 2965 ft 192 kts 182°
2026-04-22 20:58 21.18076 -87.03894 2977 ft 184 kts 181°
2026-04-22 20:59 21.16805 -87.04013 2972 ft 182 kts 181°
2026-04-22 20:59 21.15539 -87.04129 2973 ft 181 kts 182°
2026-04-22 20:59 21.14354 -87.03854 2967 ft 177 kts 140°
2026-04-22 20:59 21.13757 -87.02736 2986 ft 176 kts 109°
2026-04-22 21:00 21.13270 -87.01537 2816 ft 181 kts 122°
2026-04-22 21:00 21.12482 -87.00478 2585 ft 183 kts 129°
2026-04-22 21:00 21.11661 -86.99427 2344 ft 184 kts 128°
2026-04-22 21:00 21.10843 -86.98366 2096 ft 183 kts 128°
2026-04-22 21:01 21.10037 -86.97351 1873 ft 178 kts 133°
2026-04-22 21:01 21.09147 -86.96443 1650 ft 175 kts 126°
2026-04-22 21:01 21.08477 -86.95399 1476 ft 150 kts 123°
2026-04-22 21:01 21.07939 -86.94583 1271 ft 133 kts 122°
2026-04-22 21:02 21.07441 -86.93769 1095 ft 127 kts 120°
2026-04-22 21:02 21.06954 -86.92989 923 ft 121 kts 121°
2026-04-22 21:02 21.06510 -86.92262 768 ft 114 kts 120°
2026-04-22 21:02 21.06075 -86.91567 622 ft 112 kts 122°
2026-04-22 21:03 21.05651 -86.90886 467 ft 110 kts 120°
2026-04-22 21:03 21.05229 -86.90206 308 ft 112 kts 123°
2026-04-22 21:03 21.04786 -86.89519 168 ft 114 kts 127°
2026-04-22 21:03 21.04346 -86.88808 57 ft 107 kts 126°
2026-04-22 21:04 21.03998 -86.88269 32 ft 65 kts 126°
2026-04-22 21:04 21.03796 -86.87948 32 ft 42 kts 122°
2026-04-22 21:04 21.03669 -86.87719 33 ft 31 kts 123°
2026-04-22 21:04 21.03606 -86.87518 35 ft 28 kts 97°
2026-04-22 21:05 21.03582 -86.87319 36 ft 28 kts 104°
2026-04-22 21:05 21.03476 -86.87103 36 ft 42 kts 123°
2026-04-22 21:05 21.03310 -86.86834 36 ft 28 kts 123°
2026-04-22 21:05 21.03313 -86.86731 37 ft 14 kts 34°
2026-04-22 21:06 21.03405 -86.86665 37 ft 18 kts 35°
2026-04-22 21:06 21.03536 -86.86547 37 ft 20 kts 75°
2026-04-22 21:06 21.03489 -86.86517 37 ft 8 kts 195°
2026-04-22 21:06 21.03436 -86.86547 37 ft 6 kts 180°
2026-04-22 21:07 21.03421 -86.86538 37 ft 0 kts 133°